Time,TemperatureF,DewpointF,PressureIn,WindDirection,WindDirectionDegrees,WindSpeedMPH,WindSpeedGustMPH,Humidity,HourlyPrecipIn,Conditions,Clouds,dailyrainin,SoftwareType,DateUTC
2013-04-12 00:00:00,31.3,31.3,29.60,North,359,8.0,11.0,100,0.00,,,0.40,Wunderground v.1.15,2013-04-12 05:00:00,
2013-04-12 00:02:00,31.2,31.2,29.60,North,6,8.0,11.0,100,0.00,,,0.40,Wunderground v.1.15,2013-04-12 05:02:00,
2013-04-12 00:08:00,31.1,31.1,29.60,NNW,343,8.0,11.0,100,0.00,,,0.00,Wunderground v.1.15,2013-04-12 05:08:00,
2013-04-12 00:12:00,31.1,31.1,29.60,North,355,7.0,8.0,100,0.00,,,0.00,Wunderground v.1.15,2013-04-12 05:12:00,
2013-04-12 00:14:00,31.0,31.0,29.60,North,354,7.0,8.0,100,0.00,,,0.00,Wunderground v.1.15,2013-04-12 05:14:00,
2013-04-12 00:18:00,31.0,31.0,29.60,NNW,347,8.0,8.0,100,0.00,,,0.00,Wunderground v.1.15,2013-04-12 05:18:00,
2013-04-12 00:21:00,30.9,30.9,29.60,North,354,8.0,8.0,100,0.00,,,0.00,Wunderground v.1.15,2013-04-12 05:21:00,
2013-04-12 00:23:00,30.9,30.9,29.61,North,3,8.0,9.0,100,0.00,,,0.00,Wunderground v.1.15,2013-04-12 05:23:00,
2013-04-12 00:30:00,30.8,30.8,29.61,North,352,8.0,9.0,100,0.00,,,0.00,Wunderground v.1.15,2013-04-12 05:30:00,
2013-04-12 00:32:00,30.8,30.8,29.61,NNW,338,8.0,9.0,100,0.00,,,0.00,Wunderground v.1.15,2013-04-12 05:32:00,
2013-04-12 00:38:00,30.8,30.8,29.61,North,355,8.0,9.0,100,0.00,,,0.00,Wunderground v.1.15,2013-04-12 05:38:00,
2013-04-12 00:41:00,30.8,30.8,29.61,North,357,8.0,9.0,100,0.00,,,0.00,Wunderground v.1.15,2013-04-12 05:41:00,
2013-04-12 00:43:00,30.8,30.8,29.61,North,8,7.0,9.0,100,0.00,,,0.00,Wunderground v.1.15,2013-04-12 05:43:00,
2013-04-12 00:48:00,30.8,30.8,29.61,NNW,328,7.0,9.0,100,0.00,,,0.00,Wunderground v.1.15,2013-04-12 05:48:00,
2013-04-12 00:50:00,30.8,30.8,29.61,NNW,330,7.0,8.0,100,0.00,,,0.00,Wunderground v.1.15,2013-04-12 05:50:00,
2013-04-12 00:52:00,30.9,30.9,29.61,NNE,18,7.0,8.0,100,0.00,,,0.00,Wunderground v.1.15,2013-04-12 05:52:00,
2013-04-12 00:56:00,30.9,30.9,29.61,North,356,7.0,9.0,100,0.00,,,0.00,Wunderground v.1.15,2013-04-12 05:56:00,
2013-04-12 01:00:00,30.9,30.9,29.61,NNW,347,7.0,9.0,100,0.00,,,0.00,Wunderground v.1.15,2013-04-12 06:00:00,
2013-04-12 01:02:00,30.9,30.9,29.62,North,352,7.0,12.0,100,0.00,,,0.00,Wunderground v.1.15,2013-04-12 06:02:00,
2013-04-12 01:03:00,30.9,30.9,29.62,North,4,7.0,12.0,100,0.00,,,0.00,Wunderground v.1.15,2013-04-12 06:03:00,
2013-04-12 01:08:00,30.9,30.9,29.62,North,356,7.0,12.0,100,0.00,,,0.00,Wunderground v.1.15,2013-04-12 06:08:00,
2013-04-12 01:10:00,30.9,30.9,29.62,NNW,339,7.0,7.0,100,0.00,,,0.00,Wunderground v.1.15,2013-04-12 06:10:00,
2013-04-12 01:14:00,30.9,30.9,29.62,NNW,342,7.0,12.0,100,0.00,,,0.00,Wunderground v.1.15,2013-04-12 06:14:00,
2013-04-12 01:20:00,30.9,30.9,29.62,North,7,8.0,12.0,100,0.00,,,0.00,Wunderground v.1.15,2013-04-12 06:20:00,
2013-04-12 01:22:00,30.9,30.9,29.62,North,11,8.0,12.0,100,0.00,,,0.00,Wunderground v.1.15,2013-04-12 06:22:00,
2013-04-12 01:24:00,30.9,30.9,29.62,North,3,9.0,12.0,100,0.00,,,0.00,Wunderground v.1.15,2013-04-12 06:24:00,
2013-04-12 01:30:00,30.8,30.8,29.62,North,9,10.0,10.0,100,0.00,,,0.00,Wunderground v.1.15,2013-04-12 06:30:00,
2013-04-12 01:34:00,30.8,30.8,29.62,North,11,10.0,12.0,100,0.00,,,0.00,Wunderground v.1.15,2013-04-12 06:34:00,
2013-04-12 01:38:00,30.7,30.7,29.63,NNE,15,9.0,12.0,100,0.00,,,0.00,Wunderground v.1.15,2013-04-12 06:38:00,
2013-04-12 01:42:00,30.6,30.6,29.63,North,9,10.0,12.0,100,0.00,,,0.00,Wunderground v.1.15,2013-04-12 06:42:00,
2013-04-12 01:48:00,30.6,30.6,29.63,North,354,10.0,13.0,100,0.00,,,0.00,Wunderground v.1.15,2013-04-12 06:48:00,
2013-04-12 01:50:00,30.5,30.5,29.63,NNE,14,9.0,9.0,100,0.00,,,0.00,Wunderground v.1.15,2013-04-12 06:50:00,
2013-04-12 01:52:00,30.5,30.5,29.63,NNE,15,9.0,12.0,100,0.00,,,0.00,Wunderground v.1.15,2013-04-12 06:52:00,
2013-04-12 01:56:00,30.5,30.5,29.63,North,11,9.0,12.0,100,0.00,,,0.00,Wunderground v.1.15,2013-04-12 06:56:00,
2013-04-12 01:58:00,30.5,30.5,29.63,NNE,16,8.0,12.0,100,0.00,,,0.00,Wunderground v.1.15,2013-04-12 06:58:00,
2013-04-12 02:02:00,30.5,30.5,29.63,NNE,13,8.0,12.0,100,0.00,,,0.00,Wunderground v.1.15,2013-04-12 07:02:00,
2013-04-12 02:04:00,30.5,30.5,29.63,North,359,8.0,12.0,100,0.00,,,0.00,Wunderground v.1.15,2013-04-12 07:04:00,
2013-04-12 02:08:00,30.5,30.5,29.63,North,354,7.0,12.0,100,0.00,,,0.00,Wunderground v.1.15,2013-04-12 07:08:00,
2013-04-12 02:10:00,30.6,30.6,29.63,NNW,336,7.0,7.0,100,0.00,,,0.00,Wunderground v.1.15,2013-04-12 07:10:00,
2013-04-12 02:14:00,30.6,30.6,29.63,NNW,332,6.0,12.0,100,0.00,,,0.00,Wunderground v.1.15,2013-04-12 07:14:00,
2013-04-12 02:16:00,30.6,30.6,29.63,NNW,335,6.0,12.0,100,0.00,,,0.00,Wunderground v.1.15,2013-04-12 07:16:00,
2013-04-12 02:18:00,30.6,30.6,29.63,North,354,6.0,12.0,100,0.00,,,0.00,Wunderground v.1.15,2013-04-12 07:18:00,
2013-04-12 02:22:00,30.6,30.6,29.63,NNE,19,7.0,12.0,100,0.00,,,0.00,Wunderground v.1.15,2013-04-12 07:22:00,
2013-04-12 02:24:00,30.5,30.5,29.64,North,8,8.0,12.0,100,0.00,,,0.00,Wunderground v.1.15,2013-04-12 07:24:00,
2013-04-12 02:26:00,30.4,30.4,29.63,NNE,18,9.0,12.0,100,0.00,,,0.00,Wunderground v.1.15,2013-04-12 07:26:00,
2013-04-12 02:28:00,30.2,30.2,29.63,North,11,10.0,12.0,100,0.00,,,0.00,Wunderground v.1.15,2013-04-12 07:28:00,
2013-04-12 02:32:00,30.1,30.1,29.63,NNE,13,11.0,12.0,100,0.00,,,0.00,Wunderground v.1.15,2013-04-12 07:32:00,
2013-04-12 02:38:00,30.0,30.0,29.63,North,11,11.0,15.0,100,0.00,,,0.00,Wunderground v.1.15,2013-04-12 07:38:00,
2013-04-12 02:40:00,30.0,30.0,29.63,NNE,18,11.0,11.0,100,0.00,,,0.00,Wunderground v.1.15,2013-04-12 07:40:00,
2013-04-12 02:46:00,29.9,29.9,29.63,NE,38,10.0,12.0,100,0.00,,,0.00,Wunderground v.1.15,2013-04-12 07:46:00,
2013-04-12 02:52:00,29.9,29.9,29.63,NNE,18,10.0,12.0,100,0.00,,,0.00,Wunderground v.1.15,2013-04-12 07:52:00,
2013-04-12 02:54:00,29.9,29.9,29.63,NNE,12,10.0,12.0,100,0.00,,,0.00,Wunderground v.1.15,2013-04-12 07:54:00,
2013-04-12 02:58:00,29.8,29.8,29.63,NNE,15,9.0,12.0,100,0.00,,,0.00,Wunderground v.1.15,2013-04-12 07:58:00,
2013-04-12 03:00:00,29.9,29.9,29.63,North,4,9.0,9.0,100,0.00,,,0.00,Wunderground v.1.15,2013-04-12 08:00:00,
2013-04-12 03:02:00,29.9,29.9,29.63,North,3,9.0,12.0,100,0.00,,,0.00,Wunderground v.1.15,2013-04-12 08:02:00,
2013-04-12 03:04:00,29.9,29.9,29.63,North,9,9.0,12.0,100,0.00,,,0.00,Wunderground v.1.15,2013-04-12 08:04:00,
2013-04-12 03:06:00,29.9,29.9,29.63,North,349,8.0,12.0,100,0.00,,,0.00,Wunderground v.1.15,2013-04-12 08:06:00,
2013-04-12 03:10:00,29.9,29.9,29.63,NNW,345,7.0,12.0,100,0.00,,,0.00,Wunderground v.1.15,2013-04-12 08:10:00,
2013-04-12 03:12:00,29.9,29.9,29.63,NNW,339,7.0,12.0,100,0.00,,,0.00,Wunderground v.1.15,2013-04-12 08:12:00,
2013-04-12 03:14:00,30.0,30.0,29.63,NNW,339,6.0,12.0,100,0.00,,,0.00,Wunderground v.1.15,2013-04-12 08:14:00,
2013-04-12 03:18:00,30.0,30.0,29.63,NNE,20,7.0,12.0,100,0.00,,,0.00,Wunderground v.1.15,2013-04-12 08:18:00,
2013-04-12 03:22:00,30.0,30.0,29.63,NNE,15,8.0,13.0,100,0.00,,,0.00,Wunderground v.1.15,2013-04-12 08:22:00,
2013-04-12 03:26:00,30.0,30.0,29.63,North,353,9.0,13.0,100,0.00,,,0.00,Wunderground v.1.15,2013-04-12 08:26:00,
2013-04-12 03:30:00,29.9,29.9,29.62,NNW,347,10.0,12.0,100,0.00,,,0.00,Wunderground v.1.15,2013-04-12 08:30:00,
2013-04-12 03:32:00,29.9,29.9,29.62,North,8,10.0,12.0,100,0.00,,,0.00,Wunderground v.1.15,2013-04-12 08:32:00,
2013-04-12 03:34:00,29.8,29.8,29.62,NNE,16,11.0,14.0,100,0.00,,,0.00,Wunderground v.1.15,2013-04-12 08:34:00,
2013-04-12 03:38:00,29.8,29.8,29.63,North,356,12.0,15.0,100,0.00,,,0.00,Wunderground v.1.15,2013-04-12 08:38:00,
2013-04-12 03:40:00,29.7,29.7,29.63,NW,324,12.0,12.0,100,0.00,,,0.00,Wunderground v.1.15,2013-04-12 08:40:00,
2013-04-12 03:42:00,29.7,29.7,29.63,NNW,334,11.0,12.0,100,0.00,,,0.00,Wunderground v.1.15,2013-04-12 08:42:00,
2013-04-12 03:46:00,29.7,29.7,29.63,North,352,10.0,12.0,100,0.00,,,0.00,Wunderground v.1.15,2013-04-12 08:46:00,
2013-04-12 03:51:00,29.7,29.7,29.64,North,352,9.0,12.0,100,0.00,,,0.00,Wunderground v.1.15,2013-04-12 08:51:00,
2013-04-12 03:53:00,29.7,29.7,29.64,NNE,13,8.0,12.0,100,0.00,,,0.00,Wunderground v.1.15,2013-04-12 08:53:00,
2013-04-12 03:58:00,29.7,29.7,29.64,North,6,9.0,12.0,100,0.00,,,0.00,Wunderground v.1.15,2013-04-12 08:58:00,
2013-04-12 03:59:00,29.7,29.7,29.64,North,350,9.0,12.0,100,0.00,,,0.00,Wunderground v.1.15,2013-04-12 08:59:00,
2013-04-12 04:01:00,29.6,29.6,29.64,NNW,345,10.0,12.0,100,0.00,,,0.00,Wunderground v.1.15,2013-04-12 09:01:00,
2013-04-12 04:03:00,29.6,29.6,29.64,NNW,338,10.0,12.0,100,0.00,,,0.00,Wunderground v.1.15,2013-04-12 09:03:00,
2013-04-12 04:08:00,29.6,29.6,29.64,North,354,10.0,14.0,100,0.00,,,0.00,Wunderground v.1.15,2013-04-12 09:08:00,
2013-04-12 04:12:00,29.5,29.5,29.64,North,4,10.0,12.0,100,0.00,,,0.00,Wunderground v.1.15,2013-04-12 09:12:00,
2013-04-12 04:16:00,29.5,29.5,29.64,North,353,10.0,12.0,100,0.00,,,0.00,Wunderground v.1.15,2013-04-12 09:16:00,
2013-04-12 04:18:00,29.4,29.4,29.64,NNW,344,10.0,12.0,100,0.00,,,0.00,Wunderground v.1.15,2013-04-12 09:18:00,
2013-04-12 04:22:00,29.4,29.4,29.65,NNW,334,9.0,12.0,100,0.00,,,0.00,Wunderground v.1.15,2013-04-12 09:22:00,
2013-04-12 04:24:00,29.4,29.4,29.65,NNW,347,9.0,12.0,100,0.00,,,0.00,Wunderground v.1.15,2013-04-12 09:24:00,
2013-04-12 04:28:00,29.4,29.4,29.65,North,360,9.0,12.0,100,0.00,,,0.00,Wunderground v.1.15,2013-04-12 09:28:00,
2013-04-12 04:30:00,29.4,29.4,29.65,North,352,9.0,12.0,100,0.00,,,0.00,Wunderground v.1.15,2013-04-12 09:30:00,
2013-04-12 04:34:00,29.3,29.3,29.65,North,354,9.0,12.0,100,0.00,,,0.00,Wunderground v.1.15,2013-04-12 09:34:00,
2013-04-12 04:36:00,29.3,29.1,29.65,NNW,347,9.0,12.0,99,0.00,,,0.00,Wunderground v.1.15,2013-04-12 09:36:00,
2013-04-12 04:40:00,29.3,29.1,29.65,NNE,24,9.0,9.0,99,0.00,,,0.00,Wunderground v.1.15,2013-04-12 09:40:00,
2013-04-12 04:44:00,29.3,29.1,29.65,North,352,9.0,12.0,99,0.00,,,0.00,Wunderground v.1.15,2013-04-12 09:44:00,
2013-04-12 04:50:00,29.3,29.1,29.66,North,8,9.0,9.0,99,0.00,,,0.00,Wunderground v.1.15,2013-04-12 09:50:00,
2013-04-12 04:54:00,29.3,29.1,29.66,North,359,8.0,12.0,99,0.00,,,0.00,Wunderground v.1.15,2013-04-12 09:54:00,
2013-04-12 05:00:00,29.3,29.1,29.66,North,360,7.0,12.0,99,0.00,,,0.00,Wunderground v.1.15,2013-04-12 10:00:00,
2013-04-12 05:02:00,29.3,29.1,29.66,NNW,337,6.0,12.0,99,0.00,,,0.00,Wunderground v.1.15,2013-04-12 10:02:00,
2013-04-12 05:06:00,29.4,29.2,29.66,North,5,6.0,12.0,99,0.00,,,0.00,Wunderground v.1.15,2013-04-12 10:06:00,
2013-04-12 05:10:00,29.4,29.2,29.66,NW,322,7.0,12.0,99,0.00,,,0.00,Wunderground v.1.15,2013-04-12 10:10:00,
2013-04-12 05:12:00,29.4,29.2,29.66,NNW,342,7.0,12.0,99,0.00,,,0.00,Wunderground v.1.15,2013-04-12 10:12:00,
2013-04-12 05:18:00,29.2,29.0,29.67,NNW,335,9.0,12.0,99,0.00,,,0.00,Wunderground v.1.15,2013-04-12 10:18:00,
2013-04-12 05:20:00,29.2,29.0,29.67,NNW,344,10.0,10.0,99,0.00,,,0.00,Wunderground v.1.15,2013-04-12 10:20:00,
2013-04-12 05:24:00,29.1,28.9,29.67,North,11,10.0,13.0,99,0.00,,,0.00,Wunderground v.1.15,2013-04-12 10:24:00,
2013-04-12 05:26:00,29.0,28.8,29.66,North,3,10.0,13.0,99,0.00,,,0.00,Wunderground v.1.15,2013-04-12 10:26:00,
2013-04-12 05:34:00,28.8,28.3,29.66,NNW,342,9.0,12.0,98,0.00,,,0.00,Wunderground v.1.15,2013-04-12 10:34:00,
2013-04-12 05:40:00,28.7,28.2,29.66,NNW,338,9.0,12.0,98,0.00,,,0.00,Wunderground v.1.15,2013-04-12 10:40:00,
2013-04-12 05:42:00,28.6,28.1,29.66,North,8,10.0,12.0,98,0.00,,,0.00,Wunderground v.1.15,2013-04-12 10:42:00,
2013-04-12 05:46:00,28.5,28.0,29.66,NNW,338,10.0,12.0,98,0.00,,,0.00,Wunderground v.1.15,2013-04-12 10:46:00,
2013-04-12 05:49:00,28.3,27.8,29.66,North,4,10.0,10.0,98,0.00,,,0.00,Wunderground v.1.15,2013-04-12 10:49:00,
2013-04-12 05:51:00,28.3,27.8,29.66,NNW,347,9.0,12.0,98,0.00,,,0.00,Wunderground v.1.15,2013-04-12 10:51:00,
2013-04-12 05:54:00,28.2,27.7,29.66,NNW,339,9.0,12.0,98,0.00,,,0.00,Wunderground v.1.15,2013-04-12 10:54:00,
2013-04-12 05:58:00,28.2,27.7,29.66,NNW,345,8.0,12.0,98,0.00,,,0.00,Wunderground v.1.15,2013-04-12 10:58:00,
2013-04-12 06:00:00,28.2,27.7,29.66,North,360,7.0,12.0,98,0.00,,,0.00,Wunderground v.1.15,2013-04-12 11:00:00,
2013-04-12 06:02:00,28.2,27.7,29.66,NNE,24,7.0,12.0,98,0.00,,,0.00,Wunderground v.1.15,2013-04-12 11:02:00,
2013-04-12 06:06:00,28.2,27.7,29.67,North,357,8.0,12.0,98,0.00,,,0.00,Wunderground v.1.15,2013-04-12 11:06:00,
2013-04-12 06:08:00,28.3,27.8,29.67,NW,326,8.0,12.0,98,0.00,,,0.00,Wunderground v.1.15,2013-04-12 11:08:00,
2013-04-12 06:10:00,28.3,27.8,29.67,NNE,12,8.0,12.0,98,0.00,,,0.00,Wunderground v.1.15,2013-04-12 11:10:00,
2013-04-12 06:14:00,28.2,27.7,29.67,NNW,347,9.0,12.0,98,0.00,,,0.00,Wunderground v.1.15,2013-04-12 11:14:00,
2013-04-12 06:16:00,28.2,27.7,29.67,NNW,344,9.0,12.0,98,0.00,,,0.00,Wunderground v.1.15,2013-04-12 11:16:00,
2013-04-12 06:18:00,28.2,27.7,29.67,North,352,8.0,12.0,98,0.00,,,0.00,Wunderground v.1.15,2013-04-12 11:18:00,
2013-04-12 06:20:00,28.2,27.7,29.67,North,3,8.0,12.0,98,0.00,,,0.00,Wunderground v.1.15,2013-04-12 11:20:00,
2013-04-12 06:24:00,28.2,27.7,29.67,North,356,8.0,12.0,98,0.00,,,0.00,Wunderground v.1.15,2013-04-12 11:24:00,
2013-04-12 06:26:00,28.1,27.6,29.67,North,3,8.0,12.0,98,0.00,,,0.00,Wunderground v.1.15,2013-04-12 11:26:00,
2013-04-12 06:28:00,28.1,27.6,29.67,North,9,9.0,12.0,98,0.00,,,0.00,Wunderground v.1.15,2013-04-12 11:28:00,
2013-04-12 06:30:00,28.1,27.6,29.67,North,6,9.0,12.0,98,0.00,,,0.00,Wunderground v.1.15,2013-04-12 11:30:00,
2013-04-12 06:34:00,28.1,27.6,29.67,NNW,344,8.0,12.0,98,0.00,,,0.00,Wunderground v.1.15,2013-04-12 11:34:00,
2013-04-12 06:40:00,28.1,27.6,29.67,NNW,346,9.0,9.0,98,0.00,,,0.00,Wunderground v.1.15,2013-04-12 11:40:00,
2013-04-12 06:44:00,28.1,27.6,29.67,North,354,8.0,12.0,98,0.00,,,0.00,Wunderground v.1.15,2013-04-12 11:44:00,
2013-04-12 06:48:00,28.1,27.6,29.68,NNW,336,7.0,12.0,98,0.00,,,0.00,Wunderground v.1.15,2013-04-12 11:48:00,
2013-04-12 06:50:00,28.1,27.6,29.68,NNW,339,7.0,12.0,98,0.00,,,0.00,Wunderground v.1.15,2013-04-12 11:50:00,
2013-04-12 06:56:00,28.1,27.4,29.68,North,352,8.0,12.0,97,0.00,,,0.00,Wunderground v.1.15,2013-04-12 11:56:00,
2013-04-12 06:57:00,28.1,27.4,29.68,North,357,8.0,12.0,97,0.00,,,0.00,Wunderground v.1.15,2013-04-12 11:57:00,
2013-04-12 07:02:00,28.1,27.4,29.68,North,4,8.0,9.0,97,0.00,,,0.00,Wunderground v.1.15,2013-04-12 12:02:00,
2013-04-12 07:04:00,28.1,27.4,29.68,NNE,13,8.0,12.0,97,0.00,,,0.00,Wunderground v.1.15,2013-04-12 12:04:00,
2013-04-12 07:06:00,28.1,27.4,29.68,North,359,8.0,12.0,97,0.00,,,0.00,Wunderground v.1.15,2013-04-12 12:06:00,
2013-04-12 07:10:00,28.1,27.4,29.68,NNW,342,8.0,12.0,97,0.00,,,0.00,Wunderground v.1.15,2013-04-12 12:10:00,
2013-04-12 07:14:00,28.2,27.5,29.68,North,1,8.0,12.0,97,0.00,,,0.00,Wunderground v.1.15,2013-04-12 12:14:00,
2013-04-12 07:18:00,28.2,27.5,29.68,NNW,342,7.0,12.0,97,0.00,,,0.00,Wunderground v.1.15,2013-04-12 12:18:00,
2013-04-12 07:20:00,28.2,27.5,29.68,NNW,338,7.0,12.0,97,0.00,,,0.00,Wunderground v.1.15,2013-04-12 12:20:00,
2013-04-12 07:24:00,28.2,27.5,29.69,NNW,342,7.0,12.0,97,0.00,,,0.00,Wunderground v.1.15,2013-04-12 12:24:00,
2013-04-12 07:26:00,28.3,27.6,29.69,NW,320,7.0,12.0,97,0.00,,,0.00,Wunderground v.1.15,2013-04-12 12:26:00,
2013-04-12 07:30:00,28.3,27.6,29.69,NNW,342,7.0,12.0,97,0.00,,,0.00,Wunderground v.1.15,2013-04-12 12:30:00,
2013-04-12 07:34:00,28.4,27.7,29.69,NNW,344,8.0,12.0,97,0.00,,,0.00,Wunderground v.1.15,2013-04-12 12:34:00,
2013-04-12 07:36:00,28.5,27.8,29.69,NNW,334,9.0,12.0,97,0.00,,,0.00,Wunderground v.1.15,2013-04-12 12:36:00,
2013-04-12 07:40:00,28.5,27.8,29.69,North,356,8.0,12.0,97,0.00,,,0.00,Wunderground v.1.15,2013-04-12 12:40:00,
2013-04-12 07:42:00,28.5,27.8,29.69,NW,324,8.0,12.0,97,0.00,,,0.00,Wunderground v.1.15,2013-04-12 12:42:00,
2013-04-12 07:46:00,28.5,27.5,29.69,NNW,339,8.0,12.0,96,0.00,,,0.00,Wunderground v.1.15,2013-04-12 12:46:00,
2013-04-12 07:48:00,28.4,27.4,29.69,NNW,332,9.0,12.0,96,0.00,,,0.00,Wunderground v.1.15,2013-04-12 12:48:00,
2013-04-12 07:52:00,28.4,27.4,29.69,NNW,330,9.0,12.0,96,0.00,,,0.00,Wunderground v.1.15,2013-04-12 12:52:00,
2013-04-12 07:54:00,28.4,27.4,29.70,NW,320,9.0,12.0,96,0.00,,,0.00,Wunderground v.1.15,2013-04-12 12:54:00,
2013-04-12 07:56:00,28.5,27.5,29.70,NW,321,9.0,12.0,96,0.00,,,0.00,Wunderground v.1.15,2013-04-12 12:56:00,
2013-04-12 08:02:00,28.4,27.4,29.70,NW,324,9.0,11.0,96,0.00,,,0.00,Wunderground v.1.15,2013-04-12 13:02:00,
2013-04-12 08:06:00,28.4,27.4,29.70,NW,316,9.0,12.0,96,0.00,,,0.00,Wunderground v.1.15,2013-04-12 13:06:00,
2013-04-12 08:10:00,28.4,27.2,29.70,NNW,338,10.0,12.0,95,0.00,,,0.00,Wunderground v.1.15,2013-04-12 13:10:00,
2013-04-12 08:12:00,28.3,27.1,29.70,NNW,327,10.0,12.0,95,0.00,,,0.00,Wunderground v.1.15,2013-04-12 13:12:00,
2013-04-12 08:16:00,28.4,27.2,29.71,NNW,348,11.0,12.0,95,0.00,,,0.00,Wunderground v.1.15,2013-04-12 13:16:00,
2013-04-12 08:18:00,28.5,27.3,29.71,NW,324,10.0,12.0,95,0.00,,,0.00,Wunderground v.1.15,2013-04-12 13:18:00,
2013-04-12 08:22:00,28.5,27.3,29.71,NW,304,9.0,12.0,95,0.00,,,0.00,Wunderground v.1.15,2013-04-12 13:22:00,
2013-04-12 08:24:00,28.5,27.3,29.71,NNW,334,10.0,12.0,95,0.00,,,0.00,Wunderground v.1.15,2013-04-12 13:24:00,
2013-04-12 08:28:00,28.5,27.3,29.71,NNW,332,10.0,12.0,95,0.00,,,0.00,Wunderground v.1.15,2013-04-12 13:28:00,
2013-04-12 08:30:00,28.5,27.3,29.71,NW,318,10.0,10.0,95,0.00,,,0.00,Wunderground v.1.15,2013-04-12 13:30:00,
2013-04-12 08:34:00,28.5,27.3,29.71,NNW,327,9.0,12.0,95,0.00,,,0.00,Wunderground v.1.15,2013-04-12 13:34:00,
2013-04-12 08:36:00,28.4,27.2,29.71,NW,322,9.0,12.0,95,0.00,,,0.00,Wunderground v.1.15,2013-04-12 13:36:00,
2013-04-12 08:40:00,28.4,27.2,29.71,NNW,338,9.0,12.0,95,0.00,,,0.00,Wunderground v.1.15,2013-04-12 13:40:00,
2013-04-12 08:42:00,28.4,27.2,29.72,NW,320,9.0,12.0,95,0.00,,,0.00,Wunderground v.1.15,2013-04-12 13:42:00,
2013-04-12 08:48:00,28.4,26.9,29.72,NW,322,11.0,13.0,94,0.00,,,0.00,Wunderground v.1.15,2013-04-12 13:48:00,
2013-04-12 08:54:00,28.4,26.9,29.72,NW,315,11.0,12.0,94,0.00,,,0.00,Wunderground v.1.15,2013-04-12 13:54:00,
2013-04-12 08:58:00,28.4,26.9,29.72,NW,319,11.0,12.0,94,0.00,,,0.00,Wunderground v.1.15,2013-04-12 13:58:00,
2013-04-12 09:00:00,28.4,26.9,29.73,NW,314,11.0,16.0,94,0.00,,,0.00,Wunderground v.1.15,2013-04-12 14:00:00,
2013-04-12 09:06:00,28.3,26.5,29.73,NW,312,12.0,16.0,93,0.00,,,0.00,Wunderground v.1.15,2013-04-12 14:06:00,
2013-04-12 09:08:00,28.4,26.9,29.73,NNW,328,12.0,16.0,94,0.00,,,0.00,Wunderground v.1.15,2013-04-12 14:08:00,
2013-04-12 09:12:00,28.4,26.9,29.73,NW,317,12.0,12.0,94,0.00,,,0.00,Wunderground v.1.15,2013-04-12 14:12:00,
2013-04-12 09:14:00,28.4,26.6,29.73,NW,307,12.0,16.0,93,0.00,,,0.00,Wunderground v.1.15,2013-04-12 14:14:00,
2013-04-12 09:18:00,28.5,26.7,29.73,NW,321,12.0,16.0,93,0.00,,,0.00,Wunderground v.1.15,2013-04-12 14:18:00,
2013-04-12 09:20:00,28.5,27.0,29.73,NW,319,11.0,11.0,94,0.00,,,0.00,Wunderground v.1.15,2013-04-12 14:20:00,
2013-04-12 09:24:00,28.5,27.0,29.73,NNW,332,10.0,12.0,94,0.00,,,0.00,Wunderground v.1.15,2013-04-12 14:24:00,
2013-04-12 09:30:00,28.6,27.1,29.73,NW,312,10.0,12.0,94,0.00,,,0.00,Wunderground v.1.15,2013-04-12 14:30:00,
2013-04-12 09:32:00,28.6,27.1,29.73,WNW,300,10.0,12.0,94,0.00,,,0.00,Wunderground v.1.15,2013-04-12 14:32:00,
2013-04-12 09:36:00,28.6,27.1,29.74,WNW,301,10.0,13.0,94,0.00,,,0.00,Wunderground v.1.15,2013-04-12 14:36:00,
2013-04-12 09:40:00,28.6,26.8,29.73,NW,324,11.0,12.0,93,0.00,,,0.00,Wunderground v.1.15,2013-04-12 14:40:00,
2013-04-12 09:42:00,28.5,26.7,29.73,NW,319,12.0,13.0,93,0.00,,,0.00,Wunderground v.1.15,2013-04-12 14:42:00,
2013-04-12 09:46:00,28.6,27.1,29.74,NW,314,12.0,13.0,94,0.00,,,0.00,Wunderground v.1.15,2013-04-12 14:46:00,
2013-04-12 09:48:00,28.6,26.8,29.74,NW,317,12.0,14.0,93,0.00,,,0.00,Wunderground v.1.15,2013-04-12 14:48:00,
2013-04-12 09:52:00,28.6,26.8,29.74,NW,317,12.0,12.0,93,0.00,,,0.00,Wunderground v.1.15,2013-04-12 14:52:00,
2013-04-12 09:54:00,28.6,26.8,29.74,NW,312,12.0,14.0,93,0.00,,,0.00,Wunderground v.1.15,2013-04-12 14:54:00,
2013-04-12 10:00:00,28.7,26.9,29.75,WNW,301,12.0,14.0,93,0.00,,,0.00,Wunderground v.1.15,2013-04-12 15:00:00,
2013-04-12 10:02:00,28.7,26.9,29.75,WNW,294,12.0,14.0,93,0.00,,,0.00,Wunderground v.1.15,2013-04-12 15:02:00,
2013-04-12 10:04:00,28.6,26.8,29.75,WNW,300,12.0,14.0,93,0.00,,,0.00,Wunderground v.1.15,2013-04-12 15:04:00,
2013-04-12 10:10:00,28.6,26.8,29.75,NW,309,12.0,13.0,93,0.00,,,0.00,Wunderground v.1.15,2013-04-12 15:10:00,
2013-04-12 10:12:00,28.6,26.8,29.75,NW,312,12.0,13.0,93,0.00,,,0.00,Wunderground v.1.15,2013-04-12 15:12:00,
2013-04-12 10:16:00,28.6,26.8,29.75,NNW,329,12.0,14.0,93,0.00,,,0.00,Wunderground v.1.15,2013-04-12 15:16:00,
2013-04-12 10:22:00,28.7,26.9,29.76,NW,312,12.0,13.0,93,0.00,,,0.00,Wunderground v.1.15,2013-04-12 15:22:00,
2013-04-12 10:24:00,28.7,26.9,29.76,NW,304,12.0,13.0,93,0.00,,,0.00,Wunderground v.1.15,2013-04-12 15:24:00,
2013-04-12 10:26:00,28.7,26.9,29.76,WNW,300,11.0,13.0,93,0.00,,,0.00,Wunderground v.1.15,2013-04-12 15:26:00,
2013-04-12 10:28:00,28.8,27.0,29.75,NW,315,10.0,13.0,93,0.00,,,0.00,Wunderground v.1.15,2013-04-12 15:28:00,
2013-04-12 10:32:00,28.8,27.0,29.76,NW,312,10.0,11.0,93,0.00,,,0.00,Wunderground v.1.15,2013-04-12 15:32:00,
2013-04-12 10:34:00,28.8,27.0,29.76,NW,322,10.0,12.0,93,0.00,,,0.00,Wunderground v.1.15,2013-04-12 15:34:00,
2013-04-12 10:36:00,28.8,27.0,29.76,WNW,300,10.0,12.0,93,0.00,,,0.00,Wunderground v.1.15,2013-04-12 15:36:00,
2013-04-12 10:38:00,28.9,27.1,29.75,NW,312,11.0,12.0,93,0.00,,,0.00,Wunderground v.1.15,2013-04-12 15:38:00,
2013-04-12 10:40:00,28.9,27.1,29.75,NW,307,11.0,12.0,93,0.00,,,0.00,Wunderground v.1.15,2013-04-12 15:40:00,
2013-04-12 10:42:00,29.0,27.2,29.75,NNW,337,11.0,12.0,93,0.00,,,0.00,Wunderground v.1.15,2013-04-12 15:42:00,
2013-04-12 10:48:00,29.2,27.2,29.76,NW,312,10.0,14.0,92,0.00,,,0.00,Wunderground v.1.15,2013-04-12 15:48:00,
2013-04-12 10:50:00,29.2,27.2,29.76,NW,315,11.0,11.0,92,0.00,,,0.00,Wunderground v.1.15,2013-04-12 15:50:00,
2013-04-12 10:56:00,29.3,27.3,29.76,NW,317,11.0,13.0,92,0.00,,,0.00,Wunderground v.1.15,2013-04-12 15:56:00,
2013-04-12 10:58:00,29.3,27.3,29.76,NW,319,11.0,13.0,92,0.00,,,0.00,Wunderground v.1.15,2013-04-12 15:58:00,
2013-04-12 11:02:00,29.4,27.1,29.76,NW,316,11.0,14.0,91,0.00,,,0.00,Wunderground v.1.15,2013-04-12 16:02:00,
2013-04-12 11:06:00,29.5,27.5,29.76,NW,307,12.0,14.0,92,0.00,,,0.00,Wunderground v.1.15,2013-04-12 16:06:00,
2013-04-12 11:08:00,29.5,27.2,29.76,WNW,295,12.0,14.0,91,0.00,,,0.00,Wunderground v.1.15,2013-04-12 16:08:00,
2013-04-12 11:10:00,29.4,27.1,29.77,NW,308,11.0,13.0,91,0.00,,,0.00,Wunderground v.1.15,2013-04-12 16:10:00,
2013-04-12 11:16:00,29.5,27.2,29.77,NW,309,12.0,13.0,91,0.00,,,0.00,Wunderground v.1.15,2013-04-12 16:16:00,
2013-04-12 11:18:00,29.6,27.3,29.77,NW,309,12.0,14.0,91,0.00,,,0.00,Wunderground v.1.15,2013-04-12 16:18:00,
2013-04-12 11:22:00,29.6,27.3,29.77,NW,314,12.0,12.0,91,0.00,,,0.00,Wunderground v.1.15,2013-04-12 16:22:00,
2013-04-12 11:24:00,29.6,27.3,29.77,WNW,295,12.0,12.0,91,0.00,,,0.00,Wunderground v.1.15,2013-04-12 16:24:00,
2013-04-12 11:26:00,29.7,27.4,29.77,WNW,301,12.0,12.0,91,0.00,,,0.00,Wunderground v.1.15,2013-04-12 16:26:00,
2013-04-12 11:32:00,29.8,27.5,29.77,NW,312,12.0,15.0,91,0.00,,,0.00,Wunderground v.1.15,2013-04-12 16:32:00,
2013-04-12 11:34:00,29.8,27.2,29.77,WNW,297,13.0,15.0,90,0.00,,,0.00,Wunderground v.1.15,2013-04-12 16:34:00,
2013-04-12 11:38:00,29.8,27.2,29.77,NW,306,13.0,15.0,90,0.00,,,0.00,Wunderground v.1.15,2013-04-12 16:38:00,
2013-04-12 11:44:00,30.0,27.7,29.77,NNW,328,12.0,14.0,91,0.00,,,0.00,Wunderground v.1.15,2013-04-12 16:44:00,
2013-04-12 11:48:00,30.2,27.9,29.78,WNW,287,12.0,14.0,91,0.00,,,0.00,Wunderground v.1.15,2013-04-12 16:48:00,
2013-04-12 11:50:00,30.2,27.6,29.78,NW,319,11.0,11.0,90,0.00,,,0.00,Wunderground v.1.15,2013-04-12 16:50:00,
2013-04-12 11:52:00,30.1,27.3,29.78,NW,306,12.0,16.0,89,0.00,,,0.00,Wunderground v.1.15,2013-04-12 16:52:00,
2013-04-12 11:54:00,30.1,27.0,29.78,NW,312,13.0,16.0,88,0.00,,,0.00,Wunderground v.1.15,2013-04-12 16:54:00,
2013-04-12 12:00:00,30.2,27.3,29.78,NW,319,14.0,14.0,89,0.00,,,0.00,Wunderground v.1.15,2013-04-12 17:00:00,
2013-04-12 12:02:00,30.2,27.3,29.78,NW,312,13.0,14.0,89,0.00,,,0.00,Wunderground v.1.15,2013-04-12 17:02:00,
2013-04-12 12:04:00,30.3,27.4,29.78,NW,312,13.0,14.0,89,0.00,,,0.00,Wunderground v.1.15,2013-04-12 17:04:00,
2013-04-12 12:08:00,30.3,27.2,29.78,WNW,288,12.0,14.0,88,0.00,,,0.00,Wunderground v.1.15,2013-04-12 17:08:00,
2013-04-12 12:10:00,30.4,27.3,29.78,NW,312,12.0,18.0,88,0.00,,,0.00,Wunderground v.1.15,2013-04-12 17:10:00,
2013-04-12 12:18:00,30.6,27.5,29.78,NW,306,14.0,18.0,88,0.00,,,0.00,Wunderground v.1.15,2013-04-12 17:18:00,
2013-04-12 12:22:00,30.8,27.7,29.78,NW,309,13.0,14.0,88,0.00,,,0.00,Wunderground v.1.15,2013-04-12 17:22:00,
2013-04-12 12:28:00,30.9,28.0,29.78,NW,304,13.0,14.0,89,0.00,,,0.00,Wunderground v.1.15,2013-04-12 17:28:00,
2013-04-12 12:30:00,31.0,27.9,29.78,NW,306,12.0,12.0,88,0.00,,,0.00,Wunderground v.1.15,2013-04-12 17:30:00,
2013-04-12 12:34:00,31.0,27.9,29.78,WNW,302,11.0,12.0,88,0.00,,,0.00,Wunderground v.1.15,2013-04-12 17:34:00,
2013-04-12 12:40:00,30.9,27.5,29.78,WNW,291,11.0,11.0,87,0.00,,,0.00,Wunderground v.1.15,2013-04-12 17:40:00,
2013-04-12 12:44:00,30.9,27.8,29.78,NW,314,11.0,11.0,88,0.00,,,0.00,Wunderground v.1.15,2013-04-12 17:44:00,
2013-04-12 12:46:00,31.0,27.9,29.78,NW,310,11.0,11.0,88,0.00,,,0.00,Wunderground v.1.15,2013-04-12 17:46:00,
2013-04-12 12:52:00,31.2,28.1,29.78,NW,314,11.0,12.0,88,0.00,,,0.00,Wunderground v.1.15,2013-04-12 17:52:00,
2013-04-12 12:56:00,31.1,27.7,29.78,NW,316,12.0,17.0,87,0.00,,,0.00,Wunderground v.1.15,2013-04-12 17:56:00,
2013-04-12 13:08:00,31.4,27.7,29.78,NW,316,13.0,19.0,86,0.00,,,0.00,Wunderground v.1.15,2013-04-12 18:08:00,
2013-04-12 13:12:00,31.6,27.6,29.78,NW,314,13.0,16.0,85,0.00,,,0.00,Wunderground v.1.15,2013-04-12 18:12:00,
2013-04-12 13:16:00,31.5,27.5,29.78,NW,323,14.0,19.0,85,0.00,,,0.00,Wunderground v.1.15,2013-04-12 18:16:00,
2013-04-12 13:24:00,31.5,27.5,29.78,NW,315,13.0,19.0,85,0.00,,,0.00,Wunderground v.1.15,2013-04-12 18:24:00,
2013-04-12 13:30:00,31.6,27.9,29.78,NNW,333,14.0,14.0,86,0.00,,,0.00,Wunderground v.1.15,2013-04-12 18:30:00,
2013-04-12 14:30:00,31.6,27.9,29.80,WNW,300,12.0,12.0,86,0.00,,,0.00,Wunderground v.1.15,2013-04-12 19:30:00,
2013-04-12 14:32:00,31.7,27.7,29.80,NW,307,11.0,19.0,85,0.00,,,0.00,Wunderground v.1.15,2013-04-12 19:32:00,
2013-04-12 14:34:00,31.8,28.1,29.80,NW,305,11.0,19.0,86,0.00,,,0.00,Wunderground v.1.15,2013-04-12 19:34:00,
2013-04-12 14:38:00,31.9,27.9,29.80,NW,319,11.0,19.0,85,0.00,,,0.00,Wunderground v.1.15,2013-04-12 19:38:00,
2013-04-12 14:40:00,31.9,27.9,29.80,NW,305,11.0,19.0,85,0.00,,,0.00,Wunderground v.1.15,2013-04-12 19:40:00,
2013-04-12 14:44:00,31.8,27.8,29.81,NW,312,12.0,19.0,85,0.00,,,0.00,Wunderground v.1.15,2013-04-12 19:44:00,
2013-04-12 14:48:00,31.7,27.4,29.81,NW,319,13.0,19.0,84,0.00,,,0.00,Wunderground v.1.15,2013-04-12 19:48:00,
2013-04-12 14:52:00,31.7,27.7,29.81,NW,311,13.0,19.0,85,0.00,,,0.00,Wunderground v.1.15,2013-04-12 19:52:00,
2013-04-12 14:54:00,31.7,27.7,29.81,WNW,300,13.0,19.0,85,0.00,,,0.00,Wunderground v.1.15,2013-04-12 19:54:00,
2013-04-12 14:58:00,31.7,27.4,29.81,WNW,294,12.0,19.0,84,0.00,,,0.00,Wunderground v.1.15,2013-04-12 19:58:00,
2013-04-12 15:00:00,31.7,27.4,29.81,WNW,299,12.0,12.0,84,0.00,,,0.00,Wunderground v.1.15,2013-04-12 20:00:00,
2013-04-12 15:06:00,31.9,27.9,29.81,NW,306,11.0,19.0,85,0.00,,,0.00,Wunderground v.1.15,2013-04-12 20:06:00,
2013-04-12 15:08:00,31.9,27.9,29.81,NW,305,11.0,19.0,85,0.00,,,0.00,Wunderground v.1.15,2013-04-12 20:08:00,
2013-04-12 15:12:00,31.9,28.2,29.81,WNW,297,11.0,19.0,86,0.00,,,0.00,Wunderground v.1.15,2013-04-12 20:12:00,
2013-04-12 15:14:00,31.9,28.2,29.81,NW,308,11.0,19.0,86,0.00,,,0.00,Wunderground v.1.15,2013-04-12 20:14:00,
2013-04-12 15:20:00,31.9,27.6,29.81,WNW,295,10.0,19.0,84,0.00,,,0.00,Wunderground v.1.15,2013-04-12 20:20:00,
2013-04-12 15:22:00,31.9,27.6,29.81,WNW,298,10.0,19.0,84,0.00,,,0.00,Wunderground v.1.15,2013-04-12 20:22:00,
2013-04-12 15:24:00,32.1,28.4,29.81,NW,306,10.0,19.0,86,0.00,,,0.00,Wunderground v.1.15,2013-04-12 20:24:00,
2013-04-12 15:30:00,32.3,28.0,29.81,NW,314,10.0,19.0,84,0.00,,,0.00,Wunderground v.1.15,2013-04-12 20:30:00,
2013-04-12 15:34:00,32.3,27.7,29.81,NW,309,11.0,19.0,83,0.00,,,0.00,Wunderground v.1.15,2013-04-12 20:34:00,
2013-04-12 15:36:00,32.3,28.0,29.81,WNW,300,11.0,19.0,84,0.00,,,0.00,Wunderground v.1.15,2013-04-12 20:36:00,
2013-04-12 15:38:00,32.2,27.9,29.81,WNW,297,11.0,19.0,84,0.00,,,0.00,Wunderground v.1.15,2013-04-12 20:38:00,
2013-04-12 15:40:00,32.3,28.0,29.81,WNW,297,11.0,11.0,84,0.00,,,0.00,Wunderground v.1.15,2013-04-12 20:40:00,
2013-04-12 15:48:00,32.3,28.3,29.81,WNW,302,10.0,19.0,85,0.00,,,0.00,Wunderground v.1.15,2013-04-12 20:48:00,
2013-04-12 15:52:00,32.4,28.7,29.81,WNW,297,10.0,19.0,86,0.00,,,0.00,Wunderground v.1.15,2013-04-12 20:52:00,
2013-04-12 15:54:00,32.5,28.5,29.81,WNW,285,10.0,19.0,85,0.00,,,0.00,Wunderground v.1.15,2013-04-12 20:54:00,
2013-04-12 15:56:00,32.5,28.5,29.81,WNW,294,10.0,19.0,85,0.00,,,0.00,Wunderground v.1.15,2013-04-12 20:56:00,
2013-04-12 15:58:00,32.5,28.5,29.81,WNW,298,10.0,19.0,85,0.00,,,0.00,Wunderground v.1.15,2013-04-12 20:58:00,
2013-04-12 16:00:00,32.5,28.5,29.81,WNW,297,10.0,19.0,85,0.00,,,0.00,Wunderground v.1.15,2013-04-12 21:00:00,
2013-04-12 16:04:00,32.5,28.5,29.81,NW,309,11.0,19.0,85,0.00,,,0.00,Wunderground v.1.15,2013-04-12 21:04:00,
2013-04-12 16:10:00,32.4,28.1,29.81,WNW,299,11.0,19.0,84,0.00,,,0.00,Wunderground v.1.15,2013-04-12 21:10:00,
2013-04-12 16:14:00,32.3,28.0,29.81,WNW,294,11.0,19.0,84,0.00,,,0.00,Wunderground v.1.15,2013-04-12 21:14:00,
2013-04-12 16:18:00,32.2,28.2,29.81,WNW,297,12.0,19.0,85,0.00,,,0.00,Wunderground v.1.15,2013-04-12 21:18:00,
2013-04-12 16:20:00,32.2,27.9,29.81,WNW,295,12.0,19.0,84,0.00,,,0.00,Wunderground v.1.15,2013-04-12 21:20:00,
2013-04-12 16:24:00,32.0,27.7,29.81,WNW,283,12.0,19.0,84,0.00,,,0.00,Wunderground v.1.15,2013-04-12 21:24:00,
2013-04-12 16:26:00,32.0,28.0,29.81,NW,314,12.0,19.0,85,0.00,,,0.00,Wunderground v.1.15,2013-04-12 21:26:00,
2013-04-12 16:28:00,32.0,28.0,29.81,WNW,302,12.0,19.0,85,0.00,,,0.00,Wunderground v.1.15,2013-04-12 21:28:00,
2013-04-12 16:30:00,32.0,28.3,29.81,WNW,294,12.0,12.0,86,0.00,,,0.00,Wunderground v.1.15,2013-04-12 21:30:00,
2013-04-12 16:34:00,32.0,28.3,29.82,NW,314,12.0,19.0,86,0.00,,,0.00,Wunderground v.1.15,2013-04-12 21:34:00,
2013-04-12 16:36:00,32.0,28.3,29.82,WNW,285,12.0,19.0,86,0.00,,,0.00,Wunderground v.1.15,2013-04-12 21:36:00,
2013-04-12 16:38:00,32.1,28.7,29.82,NW,304,11.0,19.0,87,0.00,,,0.00,Wunderground v.1.15,2013-04-12 21:38:00,
2013-04-12 16:44:00,32.1,28.4,29.81,WNW,297,11.0,19.0,86,0.00,,,0.00,Wunderground v.1.15,2013-04-12 21:44:00,
2013-04-12 16:46:00,32.1,28.4,29.82,WNW,299,11.0,19.0,86,0.00,,,0.00,Wunderground v.1.15,2013-04-12 21:46:00,
2013-04-12 16:52:00,32.2,28.5,29.82,WNW,295,12.0,19.0,86,0.00,,,0.00,Wunderground v.1.15,2013-04-12 21:52:00,
2013-04-12 16:54:00,32.3,28.9,29.82,West,277,11.0,19.0,87,0.00,,,0.00,Wunderground v.1.15,2013-04-12 21:54:00,
2013-04-12 16:58:00,32.3,28.6,29.82,WNW,282,12.0,19.0,86,0.00,,,0.00,Wunderground v.1.15,2013-04-12 21:58:00,
2013-04-12 16:59:00,32.3,28.6,29.82,WNW,291,12.0,19.0,86,0.00,,,0.00,Wunderground v.1.15,2013-04-12 21:59:00,
2013-04-12 17:08:00,32.5,28.5,29.82,NW,307,12.0,19.0,85,0.00,,,0.00,Wunderground v.1.15,2013-04-12 22:08:00,
2013-04-12 17:12:00,32.6,28.3,29.83,WNW,288,12.0,19.0,84,0.00,,,0.00,Wunderground v.1.15,2013-04-12 22:12:00,
2013-04-12 17:16:00,32.7,28.7,29.83,WNW,291,12.0,19.0,85,0.00,,,0.00,Wunderground v.1.15,2013-04-12 22:16:00,
2013-04-12 17:18:00,32.7,28.7,29.83,WNW,296,12.0,19.0,85,0.00,,,0.00,Wunderground v.1.15,2013-04-12 22:18:00,
2013-04-12 17:24:00,32.6,28.3,29.83,WNW,300,12.0,19.0,84,0.00,,,0.00,Wunderground v.1.15,2013-04-12 22:24:00,
2013-04-12 17:30:00,32.4,28.4,29.83,WNW,301,13.0,13.0,85,0.00,,,0.00,Wunderground v.1.15,2013-04-12 22:30:00,
2013-04-12 17:32:00,32.4,28.7,29.83,NW,306,12.0,19.0,86,0.00,,,0.00,Wunderground v.1.15,2013-04-12 22:32:00,
2013-04-12 17:34:00,32.4,28.4,29.83,WNW,302,12.0,19.0,85,0.00,,,0.00,Wunderground v.1.15,2013-04-12 22:34:00,
2013-04-12 17:38:00,32.3,28.0,29.83,WNW,295,12.0,19.0,84,0.00,,,0.00,Wunderground v.1.15,2013-04-12 22:38:00,
2013-04-12 17:44:00,32.1,28.1,29.84,NW,304,13.0,19.0,85,0.00,,,0.00,Wunderground v.1.15,2013-04-12 22:44:00,
2013-04-12 17:46:00,32.0,28.0,29.84,WNW,293,13.0,19.0,85,0.00,,,0.00,Wunderground v.1.15,2013-04-12 22:46:00,
2013-04-12 17:50:00,32.0,28.3,29.84,WNW,297,12.0,19.0,86,0.00,,,0.00,Wunderground v.1.15,2013-04-12 22:50:00,
2013-04-12 17:52:00,31.9,28.2,29.84,WNW,297,12.0,19.0,86,0.00,,,0.00,Wunderground v.1.15,2013-04-12 22:52:00,
2013-04-12 17:58:00,31.8,28.1,29.84,NW,307,12.0,19.0,86,0.00,,,0.00,Wunderground v.1.15,2013-04-12 22:58:00,
2013-04-12 18:00:00,31.8,28.4,29.84,WNW,301,12.0,19.0,87,0.00,,,0.00,Wunderground v.1.15,2013-04-12 23:00:00,
2013-04-12 18:02:00,31.8,28.1,29.84,NW,304,12.0,19.0,86,0.00,,,0.00,Wunderground v.1.15,2013-04-12 23:02:00,
2013-04-12 18:08:00,31.7,28.0,29.84,NW,314,11.0,19.0,86,0.00,,,0.00,Wunderground v.1.15,2013-04-12 23:08:00,
2013-04-12 18:12:00,31.7,28.0,29.85,WNW,297,11.0,19.0,86,0.00,,,0.00,Wunderground v.1.15,2013-04-12 23:12:00,
2013-04-12 18:18:00,31.7,28.0,29.84,WNW,302,11.0,19.0,86,0.00,,,0.00,Wunderground v.1.15,2013-04-12 23:18:00,
2013-04-12 18:20:00,31.7,28.0,29.85,WNW,295,11.0,11.0,86,0.00,,,0.00,Wunderground v.1.15,2013-04-12 23:20:00,
2013-04-12 18:22:00,31.7,28.0,29.85,NW,305,11.0,19.0,86,0.00,,,0.00,Wunderground v.1.15,2013-04-12 23:22:00,
2013-04-12 18:24:00,31.7,28.0,29.85,WNW,291,11.0,19.0,86,0.00,,,0.00,Wunderground v.1.15,2013-04-12 23:24:00,
2013-04-12 18:26:00,31.7,28.0,29.85,WNW,284,11.0,19.0,86,0.00,,,0.00,Wunderground v.1.15,2013-04-12 23:26:00,
2013-04-12 18:28:00,31.7,28.0,29.85,WNW,294,12.0,19.0,86,0.00,,,0.00,Wunderground v.1.15,2013-04-12 23:28:00,
2013-04-12 18:30:00,31.7,27.7,29.85,WNW,298,12.0,12.0,85,0.00,,,0.00,Wunderground v.1.15,2013-04-12 23:30:00,
2013-04-12 18:32:00,31.7,28.0,29.85,WNW,302,12.0,16.0,86,0.00,,,0.00,Wunderground v.1.15,2013-04-12 23:32:00,
2013-04-12 18:34:00,31.6,27.9,29.85,WNW,302,12.0,19.0,86,0.00,,,0.00,Wunderground v.1.15,2013-04-12 23:34:00,
2013-04-12 18:38:00,31.6,27.9,29.85,NW,305,13.0,19.0,86,0.00,,,0.00,Wunderground v.1.15,2013-04-12 23:38:00,
2013-04-12 18:40:00,31.6,27.9,29.85,WNW,290,13.0,19.0,86,0.00,,,0.00,Wunderground v.1.15,2013-04-12 23:40:00,
2013-04-12 18:44:00,31.5,27.5,29.85,WNW,294,13.0,19.0,85,0.00,,,0.00,Wunderground v.1.15,2013-04-12 23:44:00,
2013-04-12 18:48:00,31.4,28.0,29.85,NW,305,13.0,19.0,87,0.00,,,0.00,Wunderground v.1.15,2013-04-12 23:48:00,
2013-04-12 18:50:00,31.4,28.0,29.85,WNW,301,13.0,13.0,87,0.00,,,0.00,Wunderground v.1.15,2013-04-12 23:50:00,
2013-04-12 18:54:00,31.3,27.9,29.85,NW,306,12.0,19.0,87,0.00,,,0.00,Wunderground v.1.15,2013-04-12 23:54:00,
2013-04-12 18:58:00,31.3,27.9,29.85,WNW,297,12.0,19.0,87,0.00,,,0.00,Wunderground v.1.15,2013-04-12 23:58:00,
2013-04-12 19:00:00,31.3,27.9,29.85,WNW,295,12.0,12.0,87,0.00,,,0.00,Wunderground v.1.15,2013-04-13 00:00:00,
2013-04-12 19:04:00,31.3,28.2,29.85,WNW,301,11.0,19.0,88,0.00,,,0.00,Wunderground v.1.15,2013-04-13 00:04:00,
2013-04-12 19:06:00,31.3,28.2,29.85,WNW,300,10.0,19.0,88,0.00,,,0.00,Wunderground v.1.15,2013-04-13 00:06:00,
2013-04-12 19:08:00,31.2,27.8,29.85,NW,305,10.0,19.0,87,0.00,,,0.00,Wunderground v.1.15,2013-04-13 00:08:00,
2013-04-12 19:10:00,31.1,27.7,29.85,NW,314,11.0,11.0,87,0.00,,,0.00,Wunderground v.1.15,2013-04-13 00:10:00,
2013-04-12 19:12:00,31.1,27.7,29.85,WNW,290,12.0,12.0,87,0.00,,,0.00,Wunderground v.1.15,2013-04-13 00:12:00,
2013-04-12 19:15:00,31.0,27.6,29.85,WNW,295,13.0,19.0,87,0.00,,,0.00,Wunderground v.1.15,2013-04-13 00:15:00,
2013-04-12 19:20:00,31.0,27.9,29.86,WNW,288,12.0,19.0,88,0.00,,,0.00,Wunderground v.1.15,2013-04-13 00:20:00,
2013-04-12 19:22:00,31.0,27.6,29.86,WNW,291,12.0,19.0,87,0.00,,,0.00,Wunderground v.1.15,2013-04-13 00:22:00,
2013-04-12 19:24:00,31.0,27.9,29.86,WNW,289,12.0,19.0,88,0.00,,,0.00,Wunderground v.1.15,2013-04-13 00:24:00,
2013-04-12 19:26:00,31.0,27.9,29.86,WNW,293,11.0,19.0,88,0.00,,,0.00,Wunderground v.1.15,2013-04-13 00:26:00,
2013-04-12 19:30:00,31.0,27.9,29.86,WNW,285,11.0,11.0,88,0.00,,,0.00,Wunderground v.1.15,2013-04-13 00:30:00,
2013-04-12 19:34:00,31.0,27.9,29.86,WNW,288,11.0,19.0,88,0.00,,,0.00,Wunderground v.1.15,2013-04-13 00:34:00,
2013-04-12 19:36:00,30.9,27.8,29.86,WNW,294,11.0,19.0,88,0.00,,,0.00,Wunderground v.1.15,2013-04-13 00:36:00,
2013-04-12 19:40:00,30.9,27.5,29.85,WNW,288,11.0,11.0,87,0.00,,,0.00,Wunderground v.1.15,2013-04-13 00:40:00,
2013-04-12 19:42:00,30.9,27.5,29.86,West,278,12.0,12.0,87,0.00,,,0.00,Wunderground v.1.15,2013-04-13 00:42:00,
2013-04-12 19:48:00,30.8,27.7,29.86,WNW,298,12.0,19.0,88,0.00,,,0.00,Wunderground v.1.15,2013-04-13 00:48:00,
2013-04-12 19:50:00,30.8,27.7,29.86,WNW,301,11.0,11.0,88,0.00,,,0.00,Wunderground v.1.15,2013-04-13 00:50:00,
2013-04-12 19:52:00,30.8,27.7,29.86,NW,307,11.0,19.0,88,0.00,,,0.00,Wunderground v.1.15,2013-04-13 00:52:00,
2013-04-12 19:54:00,30.8,27.7,29.86,WNW,297,11.0,19.0,88,0.00,,,0.00,Wunderground v.1.15,2013-04-13 00:54:00,
2013-04-12 19:56:00,30.8,27.7,29.86,WNW,288,11.0,19.0,88,0.00,,,0.00,Wunderground v.1.15,2013-04-13 00:56:00,
2013-04-12 20:02:00,30.8,27.7,29.86,WNW,290,10.0,19.0,88,0.00,,,0.00,Wunderground v.1.15,2013-04-13 01:02:00,
2013-04-12 20:08:00,30.7,27.8,29.85,NW,304,10.0,19.0,89,0.00,,,0.00,Wunderground v.1.15,2013-04-13 01:08:00,
2013-04-12 20:10:00,30.7,27.8,29.86,WNW,302,10.0,10.0,89,0.00,,,0.00,Wunderground v.1.15,2013-04-13 01:10:00,
2013-04-12 20:14:00,30.6,27.7,29.86,WNW,291,10.0,19.0,89,0.00,,,0.00,Wunderground v.1.15,2013-04-13 01:14:00,
2013-04-12 20:16:00,30.6,27.7,29.86,WNW,301,10.0,19.0,89,0.00,,,0.00,Wunderground v.1.15,2013-04-13 01:16:00,
2013-04-12 20:22:00,30.5,27.9,29.86,WNW,291,10.0,13.0,90,0.00,,,0.00,Wunderground v.1.15,2013-04-13 01:22:00,
2013-04-12 20:24:00,30.5,27.6,29.86,NW,307,11.0,19.0,89,0.00,,,0.00,Wunderground v.1.15,2013-04-13 01:24:00,
2013-04-12 20:28:00,30.5,27.6,29.86,WNW,297,11.0,19.0,89,0.00,,,0.00,Wunderground v.1.15,2013-04-13 01:28:00,
2013-04-12 20:30:00,30.4,27.8,29.86,WNW,290,11.0,11.0,90,0.00,,,0.00,Wunderground v.1.15,2013-04-13 01:30:00,
2013-04-12 20:34:00,30.4,27.8,29.86,WNW,290,11.0,19.0,90,0.00,,,0.00,Wunderground v.1.15,2013-04-13 01:34:00,
2013-04-12 20:36:00,30.4,27.8,29.86,WNW,291,10.0,19.0,90,0.00,,,0.00,Wunderground v.1.15,2013-04-13 01:36:00,
2013-04-12 20:38:00,30.4,27.8,29.86,West,274,10.0,19.0,90,0.00,,,0.00,Wunderground v.1.15,2013-04-13 01:38:00,
2013-04-12 20:40:00,30.3,27.7,29.86,WNW,290,11.0,11.0,90,0.00,,,0.00,Wunderground v.1.15,2013-04-13 01:40:00,
2013-04-12 20:42:00,30.3,27.7,29.86,WNW,302,10.0,19.0,90,0.00,,,0.00,Wunderground v.1.15,2013-04-13 01:42:00,
2013-04-12 20:44:00,30.3,27.7,29.86,WNW,287,10.0,19.0,90,0.00,,,0.00,Wunderground v.1.15,2013-04-13 01:44:00,
2013-04-12 20:48:00,30.3,27.7,29.87,WNW,295,11.0,19.0,90,0.00,,,0.00,Wunderground v.1.15,2013-04-13 01:48:00,
2013-04-12 20:54:00,30.3,27.7,29.87,WNW,289,11.0,19.0,90,0.00,,,0.00,Wunderground v.1.15,2013-04-13 01:54:00,
2013-04-12 20:58:00,30.3,27.7,29.87,WNW,295,10.0,19.0,90,0.00,,,0.00,Wunderground v.1.15,2013-04-13 01:58:00,
2013-04-12 21:02:00,30.3,27.7,29.87,WNW,294,10.0,19.0,90,0.00,,,0.00,Wunderground v.1.15,2013-04-13 02:02:00,
2013-04-12 21:04:00,30.2,27.6,29.87,WNW,288,10.0,19.0,90,0.00,,,0.00,Wunderground v.1.15,2013-04-13 02:04:00,
2013-04-12 21:08:00,30.2,27.6,29.87,WNW,288,10.0,19.0,90,0.00,,,0.00,Wunderground v.1.15,2013-04-13 02:08:00,
2013-04-12 21:14:00,30.2,27.6,29.87,WNW,284,10.0,19.0,90,0.00,,,0.00,Wunderground v.1.15,2013-04-13 02:14:00,
2013-04-12 21:20:00,30.2,27.6,29.87,WNW,295,10.0,10.0,90,0.00,,,0.00,Wunderground v.1.15,2013-04-13 02:20:00,
2013-04-12 21:24:00,30.1,27.5,29.88,WNW,288,10.0,19.0,90,0.00,,,0.00,Wunderground v.1.15,2013-04-13 02:24:00,
2013-04-12 21:26:00,30.1,27.5,29.87,WNW,284,10.0,19.0,90,0.00,,,0.00,Wunderground v.1.15,2013-04-13 02:26:00,
2013-04-12 21:30:00,30.0,27.4,29.87,WNW,289,10.0,19.0,90,0.00,,,0.00,Wunderground v.1.15,2013-04-13 02:30:00,
2013-04-12 21:36:00,30.0,27.4,29.88,WNW,295,11.0,19.0,90,0.00,,,0.00,Wunderground v.1.15,2013-04-13 02:36:00,
2013-04-12 21:42:00,30.0,27.7,29.88,WNW,298,11.0,19.0,91,0.00,,,0.00,Wunderground v.1.15,2013-04-13 02:42:00,
2013-04-12 21:44:00,30.0,27.7,29.88,WNW,297,11.0,19.0,91,0.00,,,0.00,Wunderground v.1.15,2013-04-13 02:44:00,
2013-04-12 21:48:00,30.0,27.7,29.88,WNW,302,11.0,19.0,91,0.00,,,0.00,Wunderground v.1.15,2013-04-13 02:48:00,
2013-04-12 21:52:00,30.0,27.7,29.88,WNW,288,11.0,19.0,91,0.00,,,0.00,Wunderground v.1.15,2013-04-13 02:52:00,
2013-04-12 21:54:00,30.0,27.7,29.88,WNW,294,11.0,19.0,91,0.00,,,0.00,Wunderground v.1.15,2013-04-13 02:54:00,
2013-04-12 22:00:00,29.9,27.6,29.88,WNW,298,10.0,10.0,91,0.00,,,0.00,Wunderground v.1.15,2013-04-13 03:00:00,
2013-04-12 22:02:00,29.9,27.9,29.88,NW,307,10.0,11.0,92,0.00,,,0.00,Wunderground v.1.15,2013-04-13 03:02:00,
2013-04-12 22:08:00,29.9,27.9,29.88,WNW,290,9.0,19.0,92,0.00,,,0.00,Wunderground v.1.15,2013-04-13 03:08:00,
2013-04-12 22:10:00,29.9,27.6,29.88,WNW,286,9.0,9.0,91,0.00,,,0.00,Wunderground v.1.15,2013-04-13 03:10:00,
2013-04-12 22:14:00,29.9,27.9,29.88,West,281,9.0,19.0,92,0.00,,,0.00,Wunderground v.1.15,2013-04-13 03:14:00,
2013-04-12 22:20:00,29.9,27.6,29.88,WNW,293,9.0,19.0,91,0.00,,,0.00,Wunderground v.1.15,2013-04-13 03:20:00,
2013-04-12 22:22:00,29.9,27.6,29.89,WNW,293,10.0,19.0,91,0.00,,,0.00,Wunderground v.1.15,2013-04-13 03:22:00,
2013-04-12 22:28:00,29.8,27.8,29.89,WNW,295,10.0,19.0,92,0.00,,,0.00,Wunderground v.1.15,2013-04-13 03:28:00,
2013-04-12 22:30:00,29.8,27.8,29.89,WNW,289,9.0,19.0,92,0.00,,,0.00,Wunderground v.1.15,2013-04-13 03:30:00,
2013-04-12 22:34:00,29.8,27.8,29.88,West,276,9.0,19.0,92,0.00,,,0.00,Wunderground v.1.15,2013-04-13 03:34:00,
2013-04-12 22:36:00,29.8,27.8,29.88,WNW,290,9.0,19.0,92,0.00,,,0.00,Wunderground v.1.15,2013-04-13 03:36:00,
2013-04-12 22:40:00,29.8,27.5,29.88,WNW,295,9.0,19.0,91,0.00,,,0.00,Wunderground v.1.15,2013-04-13 03:40:00,
2013-04-12 22:42:00,29.8,27.5,29.88,WNW,294,9.0,19.0,91,0.00,,,0.00,Wunderground v.1.15,2013-04-13 03:42:00,
2013-04-12 22:44:00,29.8,27.5,29.88,WNW,287,10.0,19.0,91,0.00,,,0.00,Wunderground v.1.15,2013-04-13 03:44:00,
2013-04-12 22:47:00,29.7,27.4,29.88,WNW,294,10.0,19.0,91,0.00,,,0.00,Wunderground v.1.15,2013-04-13 03:47:00,
2013-04-12 22:54:00,29.5,27.2,29.88,WNW,290,10.0,19.0,91,0.00,,,0.00,Wunderground v.1.15,2013-04-13 03:54:00,
2013-04-12 22:56:00,29.4,27.1,29.88,WNW,301,10.0,19.0,91,0.00,,,0.00,Wunderground v.1.15,2013-04-13 03:56:00,
2013-04-12 23:00:00,29.3,27.0,29.88,WNW,288,9.0,9.0,91,0.00,,,0.00,Wunderground v.1.15,2013-04-13 04:00:00,
2013-04-12 23:02:00,29.2,26.9,29.88,WNW,298,9.0,10.0,91,0.00,,,0.00,Wunderground v.1.15,2013-04-13 04:02:00,
2013-04-12 23:07:00,28.9,26.9,29.88,WNW,290,8.0,19.0,92,0.00,,,0.00,Wunderground v.1.15,2013-04-13 04:07:00,
2013-04-12 23:12:00,28.8,26.8,29.88,WNW,290,8.0,19.0,92,0.00,,,0.00,Wunderground v.1.15,2013-04-13 04:12:00,
2013-04-12 23:18:00,29.0,27.0,29.89,WNW,288,9.0,19.0,92,0.00,,,0.00,Wunderground v.1.15,2013-04-13 04:18:00,
2013-04-12 23:20:00,29.1,27.1,29.89,WNW,293,9.0,9.0,92,0.00,,,0.00,Wunderground v.1.15,2013-04-13 04:20:00,
2013-04-12 23:26:00,29.4,27.4,29.89,WNW,296,10.0,19.0,92,0.00,,,0.00,Wunderground v.1.15,2013-04-13 04:26:00,
2013-04-12 23:29:00,29.4,27.4,29.89,WNW,290,9.0,19.0,92,0.00,,,0.00,Wunderground v.1.15,2013-04-13 04:29:00,
2013-04-12 23:32:00,29.4,27.4,29.89,WNW,288,9.0,19.0,92,0.00,,,0.00,Wunderground v.1.15,2013-04-13 04:32:00,
2013-04-12 23:34:00,29.4,27.4,29.89,WNW,285,10.0,19.0,92,0.00,,,0.00,Wunderground v.1.15,2013-04-13 04:34:00,
2013-04-12 23:35:00,29.4,27.4,29.89,WNW,285,10.0,19.0,92,0.00,,,0.00,Wunderground v.1.15,2013-04-13 04:35:00,
2013-04-12 23:40:00,29.4,27.4,29.89,WNW,293,10.0,10.0,92,0.00,,,0.00,Wunderground v.1.15,2013-04-13 04:40:00,
2013-04-12 23:42:00,29.4,27.4,29.89,NW,307,10.0,19.0,92,0.00,,,0.00,Wunderground v.1.15,2013-04-13 04:42:00,
2013-04-12 23:43:00,29.4,27.4,29.89,WNW,295,9.0,19.0,92,0.00,,,0.00,Wunderground v.1.15,2013-04-13 04:43:00,
2013-04-12 23:48:00,29.4,27.1,29.89,WNW,290,10.0,19.0,91,0.00,,,0.00,Wunderground v.1.15,2013-04-13 04:48:00,
2013-04-12 23:50:00,29.3,27.0,29.89,WNW,293,9.0,9.0,91,0.00,,,0.00,Wunderground v.1.15,2013-04-13 04:50:00,
2013-04-12 23:54:00,29.2,26.6,29.89,WNW,301,10.0,19.0,90,0.00,,,0.00,Wunderground v.1.15,2013-04-13 04:54:00,
2013-04-12 23:56:00,29.2,26.6,29.89,NW,308,9.0,19.0,90,0.00,,,0.00,Wunderground v.1.15,2013-04-13 04:56:00,
2013-04-12 23:58:00,29.0,26.4,29.89,NW,304,9.0,19.0,90,0.00,,,0.00,Wunderground v.1.15,2013-04-13 04:58:00,